Weather in Kichera

Russia / Republic of Buryatia     55°56′25″N   110°06′12″E
temp.,
°C
wind,
m/s
gust,
m/s
humid.,
%
clouds,
%
prec.,
mm/h
press.,
hPa
HPBL,
m
24 july, sat
sat2423:00+13nnw337867 0.0 100932
02:00+11n3385100 0.0 101041
05:00+12nnw338380 0.0 101050
08:00+16n236874 0.0 1010431
11:00+17n34678 0.0 1010529
14:00+22nne354127 0.0 10091961
17:00+20ne2543100 0.0 10091327
20:00+16n236150 0.0 101050
25 july, sun
sun2523:00+14n336489 0.0 101038
02:00+13n44702 0.0 101145
05:00+12n44718 0.0 101145
08:00+19ne355032 0.0 1010817
11:00+21ene344082 0.0 10091867
14:00+23ese343741 0.0 10082094
17:00+22e344153 0.0 10081529
20:00+19ene225935 0.0 100933
26 july, mon
mon2623:00+15nne226797 0.0 101021
02:00+14nne336394 0.0 101026
05:00+14nne326365 0.0 101021
08:00+18e2253100 0.0 1009334
11:00+21se224255 0.0 10081291
14:00+22s324192 0.0 10071623
17:00+20ssw32480 0.0 1007727
20:00+15s117186 0.0 100839
27 july, tue
tue2723:00+15e016681 0.0 100812
02:00+15sse006787 0.0 100710
05:00+14ese117178 0.0 100711
08:00+17se116132 0.0 1007373
11:00+20s22545 0.0 10051056
14:00+21ssw335211 0.3 10041059
17:00+19s325743 0.0 1004690
20:00+16s117729 0.2 100433
28 july, wed
wed2823:00+14se008277 0.0 100411
02:00+13ene118175 0.0 100417
05:00+13ene118899 0.8 100436
08:00+13sse0193100 1.8 100499
11:00+16s328060 0.2 1004620
14:00+19ssw326441 0.6 10021015
17:00+19s326017 0.3 1001748
20:00+15s11795 0.8 100236